Regional Weather Roundup
Issued by NWS Green Bay, WI

Home | Current Version | Previous Version | Graphics & Text | Print | Product List | Glossary Off
Versions: 1 2 3 4 5 6 7 8 9 10 11 12 13 14 15 16 17 18 19 20 21 22 23 24 25 26 27 28 29 30 31 32 33 34 35 36 37 38 39 40 41 42 43 44 45 46 47 48 49 50

000
ASUS43 KGRB 201210
RWRGRB

NORTH-CENTRAL AND NORTHEAST WISCONSIN REGIONAL WEATHER ROUNDUP
NATIONAL WEATHER SERVICE GREEN BAY WI
700 AM CDT SAT SEP 20 2014

WIZ005-009-010>012-018-019-201300-
NORTH CENTRAL WISCONSIN

CITY           SKY/WX    TMP DP  RH WIND       PRES   REMARKS
IRONWOOD       CLOUDY    66  64  94 W17       29.59R
MANITOWISH WTR CLOUDY    66  65  96 SW9       29.64F
ARBOR VITAE    CLOUDY    67  64  89 SW7G16    29.66S
EAGLE RIVER    CLOUDY    65  64  95 SW10      29.65S FOG
LAND O LAKES   CLOUDY    65  64  96 SW7       29.65S FOG
RHINELANDER    CLOUDY    64  62  93 SW10      29.68F
PHILLIPS       CLOUDY    65  64  93 SW8       29.66S
ANTIGO         CLOUDY    62  60  94 SW13      29.71S
TOMAHAWK       CLOUDY    65  62  89 SW3       29.68F
MERRILL        CLOUDY    65  63  93 SW13      29.70S
$$

WIZ013-073-201300-
NORTHEAST WISCONSIN

CITY           SKY/WX    TMP DP  RH WIND       PRES   REMARKS
IRON MOUNTAIN  CLOUDY    66  60  81 SW8       29.64R
MARINETTE      CLOUDY    63  61  94 W6        29.66F
OCONTO         CLOUDY    63  63 100 SW10      29.68F
$$

WIZ017-030-035>037-045-201300-
CENTRAL WISCONSIN

CITY           SKY/WX    TMP DP  RH WIND       PRES   REMARKS
MEDFORD        CLOUDY    63  61  95 SW8       29.71R
WAUSAU         CLOUDY    63  61  93 SW9       29.70R
MOSINEE        PTCLDY    63  63 100 SW9       29.73R
MARSHFIELD     CLOUDY    63  61  93 SW14      29.73R
WISC RAPIDS    CLOUDY    63  61  93 SW5       29.76R
STEVENS POINT  CLOUDY    62  60  94 SW9       29.74S
WAUPACA        DRIZZLE   65  64  96 SW6       29.74F
SHAWANO        CLOUDY    65  63  91 SW5       29.70F
CLINTONVILLE   CLOUDY    63  61  94 SW6       29.71F
$$

WIZ038-039-048-051-201300-
FOX VALLEY

CITY           SKY/WX    TMP DP  RH WIND       PRES   REMARKS
NWS GREEN BAY  LGT RAIN  64  62  93 S16G22    29.69F
APPLETON       MOCLDY    63  61  94 SW13      29.76R
OSHKOSH        CLOUDY    64  61  90 W6        29.76R
FOND DU LAC    CLOUDY    63  59  87 S13       29.75S
$$

WIZ022-050-052-201300-
EAST CENTRAL WISCONSIN

CITY           SKY/WX    TMP DP  RH WIND       PRES   REMARKS
STURGEON BAY   CLOUDY    63  59  88 W16G22    29.69F
MANITOWOC      CLOUDY    65  61  87 W9        29.73R
SHEBOYGAN      CLOUDY    64  59  83 SW12      29.75F
$$

LMZ563-521-522-541>543-201300-
LAKESHORE

STATION/POSITION TIME  TEMP    WIND        PRES    VSBY  WAVE
                       AIR SEA DIR/SP/G                  HT/PER
                 (UTC) (F)     (DEG/KT/KT) (MB)    (MI)  (FT/S)
SHEBOYGAN LKSHOR 1200   65 54  230/ 14/ 15 1007.4F
KEWAUNEE LKSHORE 1200   65     260/  8/ 12 1005.1R
ALGOMA MARINA    1100          280/ 17/ 29   N/A
TWO RIVERS CG    1200   58                 1007.3   3 1/2  5
NORTHPORT PIER   1200   63     220/  7/ 15 1004.7F
N MID LAKE BUOY  1200   61 58  220/ 19/ 25 1004.6F         7/ 7
S GREEN BAY BUOY 1200   63     VRB 14/ 17  1006.6F
STURGEON BAY CG  1200   63 55  310/  7     1005.6   3 1/2  2
CHAMBERS ISLAND  1200   61     190/  7/ 13 1005.1F
MENOMINEE LKSHOR 1200   64     230/ 10/ 15 1005.1F
$$


USA.gov is the U.S. government's official web portal to all federal, state and local government web resources and services.